Flag for U.S.A. Weather past 2 weeks in Sandpoint, Idaho, U.S.A.

36 °F


Feels Like: 36 °F
Forecast: 37 / 69 °F
Wind: No wind

Location: Sandpoint Airport

Current Time: Oct 6, 2015 at 8:33:34 AM

Latest Report: Oct 6, 2015 at 7:55 AM

Visibility: 10 mi

Pressure: 30.08 "Hg (27.80 "Hg at 636m altitude)

Humidity: 93%

Dew point: 34 °F

Location of SandpointLocation

Historic Weather in Sandpoint — Graph


Sandpoint temperature yesterday

Maximum temperature yesterday: 68 °F (at 3:35 PM)
Minimum temperature yesterday: 32 °F (at 4:35 AM)
Average temperature yesterday: 47 °F

Past Weeks' High & Low Weather Summary

High81 °F (Sep 25, 3:15 PM)100% (Sep 22, 3:15 AM)30.16 "Hg (Sep 22, 3:15 AM)
Low30 °F (Sep 27, 6:35 AM)17% (Sep 25, 3:15 PM)29.84 "Hg (Oct 2, 5:35 PM)
Average52 °F62%30.01 "Hg
* Reported Sep 21 7:15 AM — Oct 6 7:35 AM, Sandpoint, Weather by CustomWeather, © 2015

Note: Actual official high and low records may vary slightly from our data, if they occured in-between our weather recording intervals... More about our weather records


Sandpoint weather history for previous 24 hours

Time TempWeatherWind HumidityBarometerVisibility
7:35 AM
Tue, Oct 6
34 °FClear.No wind100%30.08 "Hg10 mi
7:15 AM34 °FClear.No wind100%30.08 "Hg10 mi
6:55 AM34 °FClear.No wind100%30.08 "Hg10 mi
6:35 AM34 °FClear.No wind100%30.07 "Hg10 mi
6:15 AM34 °FClear.No wind100%30.07 "Hg10 mi
5:55 AM34 °FClear.No wind100%30.07 "Hg10 mi
5:35 AM34 °FClear.No wind100%30.07 "Hg10 mi
5:15 AM34 °FClear.No wind100%30.07 "Hg10 mi
4:55 AM34 °FClear.No wind100%30.07 "Hg10 mi
4:15 AM36 °FClear.No wind100%30.05 "Hg10 mi
3:55 AM36 °FClear.3 mph100%30.05 "Hg10 mi
3:35 AM36 °FClear.No wind93%30.05 "Hg10 mi
3:15 AM36 °FClear.No wind93%30.05 "Hg10 mi
2:55 AM36 °FClear.No wind93%30.05 "Hg10 mi
2:35 AM36 °FClear.No wind93%30.05 "Hg10 mi
2:15 AM36 °FClear.No wind93%30.05 "Hg10 mi
1:55 AM37 °FClear.No wind87%30.05 "Hg10 mi
1:35 AM37 °FClear.No wind87%30.04 "Hg10 mi
1:15 AM37 °FClear.No wind87%30.04 "Hg10 mi
12:55 AM37 °FClear.No wind87%30.04 "Hg10 mi
12:35 AM39 °FClear.No wind81%30.04 "Hg10 mi
12:15 AM39 °FClear.No wind81%30.04 "Hg10 mi
11:55 PM
Mon, Oct 5
39 °FClear.No wind81%30.04 "Hg10 mi
11:35 PM41 °FClear.No wind76%30.04 "Hg10 mi
11:15 PM41 °FClear.No wind76%30.04 "Hg10 mi
10:55 PM41 °FClear.No wind76%30.04 "Hg10 mi
10:35 PM43 °FClear.No wind76%30.04 "Hg10 mi
10:15 PM43 °FClear.No wind76%30.04 "Hg10 mi
9:35 PM45 °FClear.No wind71%30.03 "Hg10 mi
9:15 PM45 °FClear.No wind71%30.02 "Hg10 mi
8:55 PM46 °FClear.No wind66%30.02 "Hg10 mi
8:35 PM45 °FClear.No wind71%30.02 "Hg10 mi
8:15 PM46 °FClear.No wind66%30.02 "Hg10 mi
7:55 PM50 °FClear.No wind62%30.01 "Hg10 mi
7:35 PM48 °FClear.No wind66%30.00 "Hg10 mi
7:15 PM50 °FSunny.No wind71%30.00 "Hg10 mi
6:55 PM52 °FSunny.3 mph62%29.99 "Hg10 mi
6:35 PM54 °FSunny.No wind63%29.99 "Hg10 mi
6:15 PM57 °FSunny.No wind55%29.99 "Hg10 mi
5:55 PM59 °FSunny.No wind55%29.99 "Hg10 mi
5:35 PM64 °FSunny.No wind40%29.98 "Hg10 mi
5:15 PM64 °FSunny.No wind40%29.98 "Hg10 mi
4:55 PM64 °FSunny.No wind37%29.98 "Hg10 mi
4:35 PM68 °FSunny.No wind33%29.98 "Hg10 mi
4:15 PM68 °FSunny.No wind33%29.99 "Hg10 mi
3:55 PM66 °FSunny.No wind35%29.99 "Hg10 mi
3:35 PM68 °FSunny.3 mph33%29.99 "Hg10 mi
2:15 PM66 °FSunny.3 mph32%30.00 "Hg10 mi
1:55 PM64 °FSunny.5 mph34%30.00 "Hg10 mi
1:35 PM64 °FSunny.3 mph34%30.01 "Hg10 mi
1:15 PM63 °FSunny.3 mph37%30.02 "Hg10 mi
12:55 PM63 °FSunny.5 mph39%30.03 "Hg10 mi
12:35 PM63 °FSunny.3 mph39%30.04 "Hg10 mi
12:15 PM61 °FSunny.No wind42%30.04 "Hg10 mi
11:55 AM61 °FSunny.5 mph42%30.04 "Hg10 mi
11:35 AM61 °FSunny.6 mph42%30.05 "Hg10 mi
11:15 AM59 °FSunny.7 mph42%30.05 "Hg10 mi
10:55 AM59 °FSunny.10 mph42%30.06 "Hg10 mi
10:35 AM57 °FSunny.8 mph44%30.06 "Hg10 mi
10:15 AM54 °FSunny.7 mph51%30.06 "Hg10 mi
9:55 AM54 °FSunny.9 mph51%30.07 "Hg10 mi
9:35 AM50 °FSunny.No wind58%30.07 "Hg10 mi
9:15 AM46 °FSunny.No wind66%30.07 "Hg10 mi
8:55 AM45 °FSunny.No wind71%30.06 "Hg10 mi
8:35 AM43 °FSunny.No wind76%30.06 "Hg10 mi
8:15 AM39 °FSunny.No wind87%30.05 "Hg10 mi
Weather by CustomWeather, © 2015

See weather overviewHow to use our weather pages